This is the latest recevied weather packets stored in our database for station/object OK1FET-4. If no packets are shown the sender has not sent any weather packets the latest 1 day(s).
| Time | Temp. | Humidity | Pressure | Rain* | Wind** | Luminosity | Snow |
|---|---|---|---|---|---|---|---|
| 1778019724 | 12.78° C | 95% | 1007.4 hPa | - | 1.34 m/s, 256° | - | - |
| 1778019724 | 12.78° C | 95% | 1007.4 hPa | - | 1.34 m/s, 256° | - | - |
| 1778019423 | 12.78° C | 95% | 1007.4 hPa | - | 1.34 m/s, 277° | - | - |
| 1778019423 | 12.78° C | 95% | 1007.4 hPa | - | 1.34 m/s, 277° | - | - |
| 1778019423 | 12.78° C | 95% | 1007.4 hPa | - | 1.34 m/s, 277° | - | - |
| 1778019123 | 12.78° C | 95% | 1007.4 hPa | - | 1.79 m/s, 315° | - | - |
| 1778019123 | 12.78° C | 95% | 1007.4 hPa | - | 1.79 m/s, 315° | - | - |
| 1778018823 | 12.78° C | 94% | 1007.3 hPa | - | 1.34 m/s, 344° | - | - |
| 1778018823 | 12.78° C | 94% | 1007.3 hPa | - | 1.34 m/s, 344° | - | - |
| 1778018823 | 12.78° C | 94% | 1007.3 hPa | - | 1.34 m/s, 344° | - | - |
| 1778018522 | 12.78° C | 94% | 1007.2 hPa | - | 0.89 m/s, 353° | - | - |
| 1778018522 | 12.78° C | 94% | 1007.2 hPa | - | 0.89 m/s, 353° | - | - |
| 1778018522 | 12.78° C | 94% | 1007.2 hPa | - | 0.89 m/s, 353° | - | - |
| 1778018222 | 12.78° C | 94% | 1007.2 hPa | - | 0.45 m/s, 13° | - | - |
| 1778018222 | 12.78° C | 94% | 1007.2 hPa | - | 0.45 m/s, 13° | - | - |
| 1778018222 | 12.78° C | 94% | 1007.2 hPa | - | 0.45 m/s, 13° | - | - |
| 1778017922 | 12.78° C | 94% | 1007.3 hPa | - | 1.79 m/s, 317° | - | - |
| 1778017922 | 12.78° C | 94% | 1007.3 hPa | - | 1.79 m/s, 317° | - | - |
| 1778017922 | 12.78° C | 94% | 1007.3 hPa | - | 1.79 m/s, 317° | - | - |
| 1778017621 | 12.78° C | 94% | 1007.3 hPa | - | 2.24 m/s, 294° | - | - |
| 1778017621 | 12.78° C | 94% | 1007.3 hPa | - | 2.24 m/s, 294° | - | - |
| 1778017321 | 12.78° C | 94% | 1007.3 hPa | - | 2.68 m/s, 300° | - | - |
| 1778017321 | 12.78° C | 94% | 1007.3 hPa | - | 2.68 m/s, 300° | - | - |
| 1778017321 | 12.78° C | 94% | 1007.3 hPa | - | 2.68 m/s, 300° | - | - |
| 1778017021 | 12.78° C | 94% | 1007.2 hPa | - | 4.47 m/s, 284° | - | - |
* Rain since midnight (hover to see other rain measurements)
** Current wind speed in m/s (hover to see current wind gust speed)